Home > Weather > Abidjan > Past weeks

Flag for Cote d'Ivoire (Ivory Coast) Past Weather in Abidjan, Cote d'Ivoire (Ivory Coast) — Yesterday and Last 2 Weeks

Now
75 °F

Passing clouds.


Feels Like: 74 °F
Forecast: 73 / 81 °F
Wind: 5 mph from West

Location: Abidjan Airport

Current Time: Jul 26, 2016 at 6:35:01 AM

Latest Report: Jul 26, 2016 at 6:00 AM


Visibility: 4 mi

Pressure: 29.92 "Hg

Humidity: 94%

Dew Point: 73 °F

Location of AbidjanLocation

Past Weather in Abidjan — Graph

°F

Abidjan Temperature Yesterday

Maximum temperature yesterday: 82 °F (at 12:00 PM)
Minimum temperature yesterday: 72 °F (at 12:00 AM)
Average temperature yesterday: 77 °F

High & Low Weather Summary for the Past Weeks

 TemperatureHumidityPressure
High84 °F (Jul 11, 1:00 PM)100% (Jul 13, 2:30 AM)30.01 "Hg (Jul 13, 2:30 AM)
Low72 °F (Jul 24, 11:00 PM)66% (Jul 12, 2:00 PM)29.86 "Hg (Jul 14, 4:00 PM)
Average78 °F87%29.94 "Hg
* Reported Jul 11 5:00 AM — Jul 26 5:30 AM, Abidjan, Weather by CustomWeather, © 2016

Note: Actual official high and low records may vary slightly from our data, if they occured in-between our weather recording intervals... More about our weather records

Advertising

Abidjan Weather History for the Previous 24 Hours

Scroll right to see more
 ConditionsComfort  
Time TempWeatherWind HumidityBarometerVisibility
5:30 AM
Tue, Jul 26
75 °FPassing clouds.6 mph94%29.92 "Hg4 mi
5:00 AM75 °FPartly cloudy.5 mph94%29.92 "Hg4 mi
4:30 AM75 °FPartly cloudy.5 mph94%29.89 "Hg4 mi
4:00 AM75 °FPartly cloudy.5 mph94%29.89 "Hg4 mi
3:30 AM75 °FPassing clouds.6 mph94%29.89 "Hg4 mi
3:00 AM75 °FPassing clouds.7 mph94%29.89 "Hg4 mi
2:30 AM75 °FPassing clouds.8 mph94%29.89 "Hg4 mi
2:00 AM75 °FPassing clouds.7 mph94%29.92 "Hg4 mi
1:30 AM75 °FPassing clouds.6 mph94%29.92 "Hg4 mi
1:00 AM75 °FPassing clouds.6 mph94%29.92 "Hg4 mi
12:30 AM75 °FPassing clouds.5 mph94%29.92 "Hg4 mi
12:00 AM75 °FPassing clouds.6 mph94%29.95 "Hg4 mi
11:30 PM
Mon, Jul 25
75 °FPassing clouds.6 mph94%29.95 "Hg4 mi
11:00 PM75 °FPassing clouds.6 mph94%29.95 "Hg4 mi
10:30 PM75 °FPassing clouds.2 mph94%29.95 "Hg4 mi
10:00 PM75 °FPartly cloudy.3 mph94%29.95 "Hg4 mi
9:30 PM75 °FPartly cloudy.5 mph94%29.95 "Hg4 mi
9:00 PM75 °FPartly cloudy.6 mph94%29.95 "Hg4 mi
8:30 PM75 °FPartly cloudy.6 mph94%29.92 "Hg4 mi
8:00 PM75 °FPassing clouds.7 mph94%29.92 "Hg5 mi
7:30 PM75 °FPassing clouds.8 mph94%29.92 "Hg5 mi
7:00 PM77 °FPassing clouds.8 mph89%29.89 "Hg4 mi
6:30 PM77 °FBroken clouds.9 mph89%29.89 "Hg4 mi
6:00 PM77 °FBroken clouds.9 mph89%29.89 "Hg4 mi
5:30 PM77 °FBroken clouds.9 mph89%29.89 "Hg5 mi
5:00 PM77 °FBroken clouds.9 mph89%29.86 "Hg5 mi
4:30 PM77 °FBroken clouds.10 mph89%29.89 "Hg5 mi
4:00 PM79 °FBroken clouds.10 mph84%29.89 "Hg5 mi
3:30 PM79 °FBroken clouds.10 mph84%29.89 "Hg5 mi
3:00 PM79 °FBroken clouds.10 mph84%29.89 "Hg5 mi
2:30 PM79 °FBroken clouds.12 mph84%29.92 "Hg5 mi
2:00 PM81 °FBroken clouds.13 mph79%29.92 "Hg5 mi
1:30 PM82 °FScattered clouds.13 mph74%29.92 "Hg5 mi
1:00 PM82 °FScattered clouds.13 mph74%29.95 "Hg5 mi
12:30 PM82 °FScattered clouds.14 mph74%29.95 "Hg5 mi
12:00 PM82 °FScattered clouds.13 mph74%29.95 "Hg5 mi
11:30 AM81 °FScattered clouds.10 mph79%29.95 "Hg5 mi
11:00 AM81 °FScattered clouds.12 mph79%29.95 "Hg4 mi
10:30 AM81 °FScattered clouds.12 mph79%29.95 "Hg4 mi
10:00 AM79 °FBroken clouds.12 mph84%29.95 "Hg4 mi
9:30 AM79 °FBroken clouds.9 mph84%29.98 "Hg4 mi
9:00 AM79 °FBroken clouds.8 mph84%29.98 "Hg4 mi
8:30 AM77 °FPartly sunny.8 mph89%29.95 "Hg4 mi
8:00 AM77 °FPartly sunny.6 mph94%29.95 "Hg4 mi
7:30 AM75 °FPassing clouds.7 mph94%29.92 "Hg4 mi
7:00 AM75 °FPassing clouds.6 mph94%29.92 "Hg4 mi
6:30 AM73 °FScattered clouds.5 mph100%29.92 "Hg4 mi
6:00 AM73 °FPassing clouds.5 mph100%29.92 "Hg4 mi
Weather by CustomWeather, © 2016

See weather overviewHow to use our weather pages